Simultaneous Nadir Overpasses (SNOs) Predictions

Prediction of SNOs between LANDSAT-8 and METOP-B Satellite Orbit:

Table of predicted SNOs for the next 14.0 days since TLE Epoch: 11/21/2020
Index Date (LANDSAT-8) Time (LANDSAT-8) Lat,Lon (LANDSAT-8) SZA (LANDSAT-8 ) Date (METOP-B) Time (METOP-B) Lat,Lon (METOP-B) SZA (METOP-B ) Distance(km) Time Diff (sec)
1 11/21/2020 14:25:48 81.13, 3.59 103.52 11/21/2020 14:25:28 81.13, 3.70 103.53 2.02 20
2 11/21/2020 15:15:14 -81.15, 171.51 76.43 11/21/2020 15:16:08 -81.14, 171.35 76.43 2.87 54
3 11/24/2020 10:00:04 81.13, 70.00 104.08 11/24/2020 09:59:51 81.13, 70.17 104.09 2.96 13
4 11/24/2020 10:49:30 -81.15,-122.04 75.87 11/24/2020 10:50:31 -81.14,-122.18 75.86 2.52 61
5 11/27/2020 05:34:20 81.12, 136.38 104.58 11/27/2020 05:34:15 81.12, 136.25 104.56 2.30 5
6 11/27/2020 06:23:46 -81.15, -55.64 75.37 11/27/2020 06:24:54 -81.14, -55.74 75.36 1.75 68
7 11/30/2020 00:19:10 -81.09, 34.69 75.06 11/30/2020 00:17:58 -81.10, 34.68 75.08 0.39 72
8 11/30/2020 01:08:35 81.12,-157.28 105.01 11/30/2020 01:08:37 81.12,-157.32 105.01 0.60 2
9 11/30/2020 01:57:33 -81.65, 21.61 73.41 11/30/2020 01:58:47 -81.33, 21.94 73.53 35.37 74
10 12/02/2020 19:53:25 -81.11, 101.38 74.62 12/02/2020 19:52:20 -81.11, 101.47 74.64 1.52 65
